GW3403 Weather Reports


time (UTC)temp
C
wind
direction
speed
KPH
gust
KPH
rain 1hr
cm
rain 24hr
cm
rain mn
cm
humidity
%
barometer
mb
20260906145613 20 181 1.6 3.2 0.00 0.00 0.00 99 1019.5
20260906145108 20 102 0.0 0.0 0.00 0.00 0.00 99 1019.2
20260906144602 20 98 0.0 1.6 0.00 0.00 0.00 99 1019.4
20260906144057 19 98 0.0 0.0 0.00 0.00 0.00 99 1019.7
20260906143552 19 88 1.6 1.6 0.00 0.00 0.00 99 1019.5
20260906143049 19 97 0.0 0.0 0.00 0.00 0.00 99 1019.4
20260906142548 18 97 1.6 3.2 0.00 0.00 0.00 99 1019.3
20260906142044 18 98 0.0 0.0 0.00 0.00 0.00 99 1019.3
20260906141537 18 97 0.0 0.0 0.00 0.00 0.00 99 1019.4
20260906141033 17 97 0.0 0.0 0.00 0.00 0.00 99 1019.5
20260906140532 17 97 0.0 0.0 0.00 0.00 0.00 99 1019.2
20260906140031 17 99 0.0 0.0 0.00 0.00 0.00 99 1019.6
20260906135528 17 94 0.0 1.6 0.00 0.00 0.00 99 1019.6
20260906135024 17 88 1.6 1.6 0.00 0.00 0.00 99 1019.6
20260906134519 17 96 0.0 0.0 0.00 0.00 0.00 99 1019.8
20260906134014 17 100 0.0 0.0 0.00 0.00 0.00 99 1019.6
20260906133510 17 95 1.6 1.6 0.00 0.00 0.00 99 1019.8
20260906133005 16 98 0.0 1.6 0.00 0.00 0.00 99 1019.5
20260906132501 16 100 0.0 0.0 0.00 0.00 0.00 99 1019.5
20260906131956 16 86 1.6 1.6 0.00 0.00 0.00 99 1019.5
20260906131451 16 98 0.0 0.0 0.00 0.00 0.00 99 1019.3
20260906130947 16 100 0.0 0.0 0.00 0.00 0.00 99 1019.4
20260906130446 15 97 0.0 0.0 0.00 0.00 0.00 99 1019.5
20260906125940 15 100 0.0 0.0 0.00 0.00 0.00 99 1019.2
20260906125437 15 100 0.0 0.0 0.00 0.00 0.00 99 1019.2
20260906124932 15 100 0.0 0.0 0.00 0.00 0.00 99 1019.1
20260906124428 15 100 0.0 0.0 0.00 0.00 0.00 99 1019.1
20260906123928 15 100 0.0 0.0 0.00 0.00 0.00 99 1019.3
20260906123427 15 101 0.0 0.0 0.00 0.00 0.00 99 1019.1
20260906122921 14 111 1.6 1.6 0.00 0.00 0.00 99 1019.0
20260906122416 14 100 0.0 0.0 0.00 0.00 0.00 99 1019.2
20260906121913 14 99 0.0 0.0 0.00 0.00 0.00 99 1018.8
20260906121409 14 99 0.0 0.0 0.00 0.00 0.00 99 1019.1
20260906120905 13 101 0.0 0.0 0.00 0.00 0.00 99 1018.8
20260906120400 13 101 0.0 0.0 0.00 0.00 0.00 99 1018.9
20260906115856 13 101 0.0 0.0 0.00 0.00 0.00 99 1018.8
20260906115352 13 101 0.0 0.0 0.00 0.00 0.00 99 1018.8
20260906114851 13 101 0.0 0.0 0.00 0.00 0.00 99 1018.7
20260906114346 13 101 0.0 0.0 0.00 0.00 0.00 99 1018.7
20260906113841 13 101 0.0 0.0 0.00 0.00 0.00 99 1018.6
20260906113340 13 101 0.0 0.0 0.00 0.00 0.00 99 1018.7
20260906112836 13 101 0.0 0.0 0.00 0.00 0.00 99 1018.5
20260906112332 13 101 0.0 0.0 0.00 0.00 0.00 99 1018.4
20260906111831 13 101 0.0 0.0 0.00 0.00 0.00 99 1018.4
20260906111326 14 101 0.0 0.0 0.00 0.00 0.00 99 1018.3
20260906110821 14 101 0.0 0.0 0.00 0.00 0.00 99 1018.2
20260906110317 14 101 0.0 0.0 0.00 0.00 0.00 99 1018.1
20260906105815 14 101 0.0 0.0 0.00 0.00 0.00 99 1018.2
20260906105311 14 101 0.0 0.0 0.00 0.00 0.00 99 1018.4
20260906104807 14 101 0.0 0.0 0.00 0.00 0.00 99 1018.3
20260906104305 14 101 0.0 0.0 0.00 0.00 0.00 99 1018.0
20260906103803 14 102 0.0 0.0 0.00 0.00 0.00 99 1018.2
20260906103257 15 101 0.0 0.0 0.00 0.00 0.00 99 1018.0
20260906102754 15 101 0.0 0.0 0.00 0.00 0.00 99 1018.1
20260906102252 15 101 0.0 0.0 0.00 0.00 0.00 99 1017.9
20260906101748 15 101 0.0 0.0 0.00 0.00 0.00 99 1018.0
20260906101242 15 101 0.0 0.0 0.00 0.00 0.00 99 1017.6
20260906100738 15 100 0.0 0.0 0.00 0.00 0.00 99 1018.1
20260906100237 15 103 0.0 0.0 0.00 0.00 0.00 99 1018.0
20260906095733 15 107 1.6 1.6 0.00 0.00 0.00 99 1018.3
20260906095228 15 105 0.0 0.0 0.00 0.00 0.00 99 1018.0
20260906094726 15 103 0.0 0.0 0.00 0.00 0.00 99 1018.1
20260906094216 14 101 0.0 0.0 0.00 0.00 0.00 99 1018.2
20260906093712 14 99 0.0 0.0 0.00 0.00 0.00 99 1018.0
20260906093207 14 100 0.0 0.0 0.00 0.00 0.00 99 1017.9
20260906092702 14 100 0.0 0.0 0.00 0.00 0.00 99 1018.0
20260906092156 14 100 0.0 0.0 0.00 0.00 0.00 99 1018.1
20260906091653 14 98 0.0 0.0 0.00 0.00 0.00 99 1018.1
20260906091149 14 100 0.0 0.0 0.00 0.00 0.00 99 1018.2
20260906090645 14 100 0.0 0.0 0.00 0.00 0.00 99 1017.9
20260906090144 14 101 0.0 0.0 0.00 0.00 0.00 99 1018.0
20260906085643 14 100 0.0 0.0 0.00 0.00 0.00 99 1017.9
20260906085137 14 100 0.0 0.0 0.00 0.00 0.00 99 1017.9
20260906084632 14 100 0.0 0.0 0.00 0.00 0.00 99 1017.9
20260906084131 14 100 0.0 0.0 0.00 0.00 0.00 99 1017.9
20260906083626 14 100 0.0 0.0 0.00 0.00 0.00 99 1017.9
20260906083121 14 100 0.0 0.0 0.00 0.00 0.00 99 1018.0
20260906082617 14 99 0.0 0.0 0.00 0.00 0.00 99 1018.2
20260906082112 14 99 0.0 0.0 0.00 0.00 0.00 99 1017.8
20260906081608 14 99 0.0 0.0 0.00 0.00 0.00 99 1017.9
20260906081103 14 99 0.0 0.0 0.00 0.00 0.00 99 1017.9
20260906080600 14 99 0.0 0.0 0.00 0.00 0.00 99 1017.8
20260906080055 14 99 0.0 0.0 0.00 0.00 0.00 99 1017.9
20260906075549 14 99 0.0 0.0 0.00 0.00 0.00 99 1017.8
20260906075044 14 99 0.0 0.0 0.00 0.00 0.00 99 1017.9
20260906074539 14 99 0.0 0.0 0.00 0.00 0.00 99 1018.0
20260906074037 14 99 0.0 0.0 0.00 0.00 0.00 99 1018.1
20260906073532 14 99 0.0 0.0 0.00 0.00 0.00 99 1017.9
20260906073029 14 99 0.0 0.0 0.00 0.00 0.00 99 1018.3
20260906072523 15 99 0.0 0.0 0.00 0.00 0.00 99 1018.1
20260906072020 15 99 0.0 0.0 0.00 0.00 0.00 99 1018.2
20260906071515 15 99 0.0 0.0 0.00 0.00 0.00 99 1018.0
20260906071010 15 99 0.0 0.0 0.00 0.00 0.00 99 1018.1
20260906070506 15 99 0.0 0.0 0.00 0.00 0.00 99 1017.8
20260906070001 15 99 0.0 0.0 0.00 0.00 0.00 99 1018.0
20260906065455 15 99 0.0 0.0 0.00 0.00 0.00 99 1017.7
20260906064951 15 99 0.0 0.0 0.00 0.00 0.00 99 1017.8
20260906064447 15 99 0.0 0.0 0.00 0.00 0.00 99 1017.9
20260906063942 15 99 0.0 0.0 0.00 0.00 0.00 99 1018.2
20260906063437 15 99 0.0 0.0 0.00 0.00 0.00 99 1018.0
20260906062932 15 100 0.0 0.0 0.00 0.00 0.00 99 1017.8
20260906062427 15 99 0.0 0.0 0.00 0.00 0.00 99 1017.7
20260906061922 15 100 0.0 0.0 0.00 0.00 0.00 99 1017.6
20260906061418 15 96 0.0 0.0 0.00 0.00 0.00 99 1017.5
20260906060912 15 97 0.0 0.0 0.00 0.00 0.00 99 1017.5
20260906060410 15 94 0.0 0.0 0.00 0.00 0.00 99 1017.5
20260906055906 15 97 0.0 0.0 0.00 0.00 0.00 99 1017.5
20260906055401 15 97 0.0 0.0 0.00 0.00 0.00 99 1017.5
20260906054856 15 97 0.0 0.0 0.00 0.00 0.00 99 1017.5
20260906054351 15 98 0.0 0.0 0.00 0.00 0.00 99 1017.8
20260906053847 15 97 0.0 0.0 0.00 0.00 0.00 99 1017.7
20260906053343 15 98 0.0 0.0 0.00 0.00 0.00 99 1017.6
20260906052838 15 98 0.0 0.0 0.00 0.00 0.00 99 1017.9
20260906052334 15 97 0.0 0.0 0.00 0.00 0.00 99 1017.6
20260906051831 15 97 0.0 0.0 0.00 0.00 0.00 99 1017.7
20260906051330 15 98 0.0 0.0 0.00 0.00 0.00 99 1017.7
20260906050826 15 97 0.0 0.0 0.00 0.00 0.00 99 1017.4
20260906050321 15 98 0.0 0.0 0.00 0.00 0.00 99 1017.5
20260906045820 15 97 0.0 0.0 0.00 0.00 0.00 99 1017.6
20260906045314 15 98 0.0 0.0 0.00 0.00 0.00 99 1017.3
20260906044811 15 97 0.0 0.0 0.00 0.00 0.00 99 1017.3
20260906044305 15 98 0.0 0.0 0.00 0.00 0.00 99 1017.2
20260906043801 15 98 0.0 0.0 0.00 0.00 0.00 99 1017.1
20260906043257 16 98 0.0 0.0 0.00 0.00 0.00 99 1017.1
20260906042757 16 98 0.0 0.0 0.00 0.00 0.00 99 1016.7
20260906042256 16 98 0.0 0.0 0.00 0.00 0.00 99 1016.8
20260906041751 16 98 0.0 0.0 0.00 0.00 0.00 99 1016.9
20260906041247 16 98 0.0 0.0 0.00 0.00 0.00 99 1016.9
20260906040742 16 98 0.0 0.0 0.00 0.00 0.00 99 1016.8
20260906040237 16 98 0.0 0.0 0.00 0.00 0.00 99 1016.7
20260906035732 16 98 0.0 0.0 0.00 0.00 0.00 99 1016.5
20260906035229 16 98 0.0 0.0 0.00 0.00 0.00 99 1016.6
20260906034728 16 98 0.0 0.0 0.00 0.00 0.00 99 1016.8
20260906034223 16 98 0.0 0.0 0.00 0.00 0.00 99 1016.8
20260906033719 16 98 0.0 0.0 0.00 0.00 0.00 99 1016.9
20260906033218 16 98 0.0 0.0 0.00 0.00 0.00 99 1016.9
20260906032716 16 98 0.0 0.0 0.00 0.00 0.00 99 1016.9
20260906032215 17 97 0.0 0.0 0.00 0.00 0.00 99 1016.6
20260906031710 17 99 0.0 0.0 0.00 0.00 0.00 99 1016.7
20260906031206 17 98 0.0 0.0 0.00 0.00 0.00 99 1016.8
20260906030706 17 98 0.0 0.0 0.00 0.00 0.00 99 1016.9
20260906030200 17 98 0.0 0.0 0.00 0.00 0.00 99 1016.8
20260906025659 17 98 0.0 0.0 0.00 0.00 0.00 99 1016.8
20260906025154 17 104 0.0 0.0 0.00 0.00 0.00 99 1016.7
20260906024648 17 98 0.0 0.0 0.00 0.00 0.00 99 1016.6
20260906024147 17 97 0.0 0.0 0.00 0.00 0.00 99 1016.7
20260906023644 17 99 0.0 0.0 0.00 0.00 0.00 99 1016.6
20260906023143 17 100 0.0 0.0 0.00 0.00 0.00 99 1016.4
20260906022638 17 97 0.0 0.0 0.00 0.00 0.00 99 1016.4
20260906022134 18 97 0.0 0.0 0.00 0.00 0.00 99 1016.4
20260906021630 18 97 0.0 0.0 0.00 0.00 0.00 99 1016.4
20260906021128 18 97 0.0 0.0 0.00 0.00 0.00 99 1016.6
20260906020623 18 98 0.0 0.0 0.00 0.00 0.00 99 1016.3
20260906020118 18 98 0.0 0.0 0.00 0.00 0.00 99 1016.4
20260906015612 18 99 0.0 0.0 0.00 0.00 0.00 99 1016.3
20260906015111 18 99 0.0 0.0 0.00 0.00 0.00 99 1016.4
20260906014606 18 99 0.0 0.0 0.00 0.00 0.00 99 1016.4
20260906014102 18 97 0.0 0.0 0.00 0.00 0.00 99 1016.0
20260906013557 18 97 0.0 0.0 0.00 0.00 0.00 99 1015.8
20260906013053 18 97 0.0 0.0 0.00 0.00 0.00 99 1015.9
20260906012548 19 97 0.0 0.0 0.00 0.00 0.00 99 1015.9
20260906012047 19 97 0.0 0.0 0.00 0.00 0.00 99 1015.8
20260906011544 19 97 0.0 0.0 0.00 0.00 0.00 99 1015.8
20260906011043 19 97 0.0 0.0 0.00 0.00 0.00 99 1015.9
20260906010539 19 97 0.0 0.0 0.00 0.00 0.00 99 1015.9
20260906010035 19 97 0.0 0.0 0.00 0.00 0.00 99 1015.9
20260906005534 19 97 0.0 0.0 0.00 0.00 0.00 99 1015.8
20260906005033 20 97 0.0 0.0 0.00 0.00 0.00 99 1015.8
20260906004532 20 97 0.0 0.0 0.00 0.00 0.00 99 1015.7
20260906004027 20 97 0.0 0.0 0.00 0.00 0.00 99 1015.9
20260906003523 20 96 0.0 0.0 0.00 0.00 0.00 99 1015.8
20260906003019 20 96 0.0 0.0 0.00 0.00 0.00 99 1015.6
20260906002513 20 97 0.0 0.0 0.00 0.00 0.00 99 1015.7
20260906002008 20 97 0.0 0.0 0.00 0.00 0.00 99 1015.9
20260906001504 20 97 0.0 0.0 0.00 0.00 0.00 99 1015.8
20260906000958 20 97 0.0 0.0 0.00 0.00 0.00 99 1015.9
20260906000455 21 97 0.0 0.0 0.00 0.00 0.00 98 1015.8
20260905235954 21 97 0.0 0.0 0.00 0.00 0.00 98 1015.8
20260905235448 21 97 0.0 0.0 0.00 0.00 0.00 98 1015.8
20260905234943 21 97 0.0 0.0 0.00 0.00 0.00 97 1015.7
20260905234438 21 97 0.0 0.0 0.00 0.00 0.00 97 1016.0
20260905233932 21 97 0.0 0.0 0.00 0.00 0.00 96 1015.8
20260905233428 21 97 0.0 0.0 0.00 0.00 0.00 96 1016.3
20260905232927 21 99 0.0 0.0 0.00 0.00 0.00 96 1016.0
20260905232423 22 97 0.0 0.0 0.00 0.00 0.00 96 1016.3
20260905231918 22 99 0.0 0.0 0.00 0.00 0.00 95 1015.9
20260905231414 22 101 0.0 0.0 0.00 0.00 0.00 95 1016.0
20260905230911 22 96 0.0 0.0 0.00 0.00 0.00 94 1016.1
20260905230408 22 98 0.0 0.0 0.00 0.00 0.00 94 1015.8
20260905225901 22 98 0.0 0.0 0.00 0.00 0.00 93 1016.1
20260905225356 22 97 0.0 0.0 0.00 0.00 0.00 92 1015.9
20260905224852 22 96 0.0 0.0 0.00 0.00 0.00 92 1016.0
20260905224348 22 96 0.0 0.0 0.00 0.00 0.00 91 1015.8
20260905223842 22 99 0.0 0.0 0.00 0.00 0.00 92 1016.1
20260905223339 22 96 0.0 0.0 0.00 0.00 0.00 91 1016.0
20260905222834 22 98 0.0 0.0 0.00 0.00 0.00 91 1016.1
20260905222333 22 95 0.0 0.0 0.00 0.00 0.00 90 1016.0
20260905221829 22 94 0.0 0.0 0.00 0.00 0.00 90 1016.0
20260905221326 22 101 0.0 0.0 0.00 0.00 0.00 90 1015.7
20260905220821 23 93 0.0 0.0 0.00 0.00 0.00 90 1015.8
20260905220317 23 103 0.0 0.0 0.00 0.00 0.00 89 1015.4
20260905215816 23 96 0.0 0.0 0.00 0.00 0.00 90 1015.6
20260905215312 23 102 0.0 0.0 0.00 0.00 0.00 90 1015.7
20260905214808 23 98 0.0 0.0 0.00 0.00 0.00 90 1015.6
20260905214304 23 93 0.0 1.6 0.00 0.00 0.00 90 1015.7
20260905213759 23 106 0.0 1.6 0.00 0.00 0.00 89 1015.5
20260905213255 23 99 0.0 0.0 0.00 0.00 0.00 89 1015.7
20260905212749 23 91 1.6 1.6 0.00 0.00 0.00 88 1015.8
20260905212249 23 81 1.6 1.6 0.00 0.00 0.00 90 1015.9
20260905211748 23 102 0.0 0.0 0.00 0.00 0.00 90 1015.9
20260905211244 23 105 0.0 1.6 0.00 0.00 0.00 90 1015.9
20260905210741 23 102 0.0 0.0 0.00 0.00 0.00 90 1015.9
20260905210235 23 105 1.6 1.6 0.00 0.00 0.00 90 1016.3
20260905205734 23 98 0.0 0.0 0.00 0.00 0.00 90 1015.8
20260905205229 23 98 0.0 0.0 0.00 0.00 0.00 90 1015.9
20260905204728 22 88 0.0 0.0 0.00 0.00 0.00 92 1015.9
20260905204224 22 98 0.0 0.0 0.00 0.00 0.00 92 1016.0
20260905203723 22 85 0.0 0.0 0.00 0.00 0.00 93 1016.0
20260905203219 22 96 0.0 1.6 0.00 0.00 0.00 93 1016.0
20260905202714 22 95 0.0 0.0 0.00 0.00 0.00 93 1016.1
20260905202215 22 96 0.0 0.0 0.00 0.00 0.00 94 1016.3
20260905201710 22 99 0.0 0.0 0.00 0.00 0.00 94 1016.3
20260905201205 22 99 0.0 0.0 0.00 0.00 0.00 94 1016.3
20260905200700 22 91 0.0 0.0 0.00 0.00 0.00 94 1016.1
20260905200155 22 101 1.6 3.2 0.00 0.00 0.00 94 1016.3
20260905195654 22 98 0.0 0.0 0.00 0.00 0.00 93 1016.1
20260905195148 22 99 0.0 0.0 0.00 0.00 0.00 93 1016.5
20260905194644 22 99 0.0 0.0 0.00 0.00 0.00 93 1016.4
20260905194138 22 101 0.0 0.0 0.00 0.00 0.00 93 1016.1
20260905193633 22 101 0.0 0.0 0.00 0.00 0.00 94 1016.5
20260905193133 22 99 0.0 1.6 0.00 0.00 0.00 94 1016.1
20260905192628 22 97 1.6 1.6 0.00 0.00 0.00 93 1016.3
20260905192124 22 96 0.0 0.0 0.00 0.00 0.00 94 1016.1
20260905191624 22 98 0.0 0.0 0.00 0.00 0.00 94 1016.4
20260905191122 22 92 1.6 1.6 0.00 0.00 0.00 94 1016.3
20260905190621 22 99 0.0 0.0 0.00 0.00 0.00 94 1016.4
20260905190120 22 103 0.0 0.0 0.00 0.00 0.00 94 1016.3
20260905185619 21 101 1.6 1.6 0.00 0.00 0.00 95 1016.5
20260905185114 21 104 1.6 1.6 0.00 0.00 0.00 95 1016.4
20260905184609 21 97 0.0 0.0 0.00 0.00 0.00 95 1016.5
20260905184108 21 95 0.0 1.6 0.00 0.00 0.00 95 1016.1
20260905183607 21 112 1.6 1.6 0.00 0.00 0.00 94 1016.6
20260905183103 21 101 0.0 1.6 0.00 0.00 0.00 94 1016.3
20260905182602 21 97 0.0 0.0 0.00 0.00 0.00 95 1016.4
20260905182056 21 94 0.0 0.0 0.00 0.00 0.00 94 1016.5
20260905181551 21 94 0.0 0.0 0.00 0.00 0.00 94 1016.6
20260905181050 21 99 0.0 1.6 0.00 0.00 0.00 94 1016.6
20260905180545 21 109 1.6 1.6 0.00 0.00 0.00 94 1016.4
20260905180041 21 96 0.0 0.0 0.00 0.00 0.00 95 1016.5
20260905175539 21 95 0.0 0.0 0.00 0.00 0.00 95 1016.6
20260905175035 21 105 0.0 1.6 0.00 0.00 0.00 95 1016.5
20260905174531 21 89 3.2 3.2 0.00 0.00 0.00 94 1016.4
20260905174026 21 97 0.0 0.0 0.00 0.00 0.00 95 1016.5
20260905173523 21 97 1.6 1.6 0.00 0.00 0.00 94 1016.3
20260905173018 21 107 1.6 1.6 0.00 0.00 0.00 94 1016.5
20260905172516 21 100 1.6 1.6 0.00 0.00 0.00 95 1016.4
20260905172012 21 106 1.6 3.2 0.00 0.00 0.00 95 1016.4
20260905171508 21 118 1.6 3.2 0.00 0.00 0.00 95 1016.3
20260905171004 21 80 1.6 3.2 0.00 0.00 0.00 95 1016.3
20260905170500 21 93 1.6 3.2 0.00 0.00 0.00 95 1016.5
20260905165959 21 85 3.2 4.8 0.00 0.00 0.00 95 1016.6
20260905165455 21 104 3.2 3.2 0.00 0.00 0.00 95 1016.5
20260905164949 21 99 0.0 0.0 0.00 0.00 0.00 95 1016.5
20260905164444 21 102 0.0 0.0 0.00 0.00 0.00 96 1016.3
20260905163939 21 105 1.6 1.6 0.00 0.00 0.00 96 1016.1
20260905163436 21 88 0.0 1.6 0.00 0.00 0.00 96 1016.4
20260905162931 21 90 0.0 0.0 0.00 0.00 0.00 96 1016.6
20260905162426 21 111 0.0 1.6 0.00 0.00 0.00 96 1016.5
20260905161921 21 90 0.0 1.6 0.00 0.00 0.00 96 1016.4
20260905161420 21 86 1.6 1.6 0.00 0.00 0.00 96 1016.5
20260905160918 21 93 1.6 1.6 0.00 0.00 0.00 96 1016.4
20260905160412 21 85 1.6 1.6 0.00 0.00 0.00 96 1016.5
20260905155907 21 96 0.0 0.0 0.00 0.00 0.00 97 1016.4
20260905155407 21 104 0.0 0.0 0.00 0.00 0.00 97 1016.7
20260905154905 21 97 0.0 0.0 0.00 0.00 0.00 97 1016.5
20260905154401 21 115 0.0 1.6 0.00 0.00 0.00 96 1016.4
20260905153856 21 97 0.0 1.6 0.00 0.00 0.00 97 1016.1
20260905153353 20 91 1.6 1.6 0.00 0.00 0.00 97 1016.3
20260905152852 20 87 1.6 3.2 0.00 0.00 0.00 97 1016.0
20260905152351 20 96 0.0 0.0 0.00 0.00 0.00 98 1016.0
20260905151847 20 98 0.0 0.0 0.00 0.00 0.00 97 1015.9
20260905151343 20 98 0.0 1.6 0.00 0.00 0.00 97 1016.1
20260905150843 20 97 0.0 0.0 0.00 0.00 0.00 98 1016.0
20260905150337 20 96 0.0 0.0 0.00 0.00 0.00 98 1015.9